Presure
121 106 110 107 133 143 124 127 132 123 105 125 129 113 114 112 119 137 116 148 127 113 114 115 147 129 123 133 161 115 118 161 140 126 138 145 159 144 138 180 183 325 320 227 303 295 315 290 294
121 109 134 112 133 118 150 122 102 93 131 110 141 126 116 109 121 119 116 132 125 121 111 133 169 128 130 115 129 120 182 119 118 135 171 159 155 181 170 182 236 228 260 269 274 270 256 289 269
119 125 128 110 163 140 134 120 121 113 155 120 130 140 112 122 124 111 127 125 113 124 166 124 121 112 118 133 156 147 118 125 158 170 159 174 164 171 174 256 226 253 250 234 233 250 231 244 246
123 168 149 102 134 151 141 125 124 132 116 146 96 123 115 110 105 120 116 109 122 140 116 113 116 116 130 141 148 137 122 160 165 146 160 170 167 181 259 254 246 237 239 232 233 232 233 226 228
115 121 106 172 118 154 154 135 130 125 110 99 110 139 142 118 122 132 131 110 132 125 113 146 135 131 162 156 123 128 169 174 151 166 163 176 244 252 230 236 217 222 226 215 218 225 224 222 223
121 128 168 123 186 105 129 135 139 149 108 126 120 134 141 134 122 109 135 154 129 132 122 180 166 142 125 168 143 134 160 172 183 161 177 203 243 230 223 228 217 209 198 210 198 194 199 205 214
133 121 128 109 128 166 169 117 114 133 129 160 129 131 154 115 109 114 126 117 150 117 156 126 160 127 150 127 170 163 171 137 168 177 226 235 235 224 226 204 190 213 211 212 199 204 205 192 192
181 124 123 160 169 155 132 133 129 150 131 127 134 124 110 110 118 176 151 114 119 131 159 131 119 160 152 160 172 158 164 170 184 186 240 231 214 209 197 200 202 191 195 198 203 192 199 192 199
120 138 182 139 174 129 155 126 185 143 130 123 134 109 131 126 141 155 118 143 158 146 121 135 155 131 166 143 165 168 179 180 211 230 210 214 212 212 207 197 196 194 181 181 179 167 180 173 181
185 170 161 131 122 126 184 185 184 128 129 155 186 186 180 135 119 118 155 174 148 122 159 155 155 169 165 156 173 181 185 221 189 209 213 211 210 212 205 194 139 180 183 190 177 179 187 165 167
108 147 187 107 123 133 141 115 177 177 185 146 144 184 159 116 119 147 150 119 126 144 158 160 168 170 182 175 168 183 226 227 203 224 212 210 210 206 204 194 125 200 203 191 181 181 166 173 175
141 126 115 177 174 130 179 128 188 119 154 185 167 133 177 170 174 158 137 126 165 163 163 159 188 171 162 183 170 205 217 220 206 217 215 219 212 221 223 218 212 206 200 199 196 178 192 133 152
173 170 193 189 185 176 153 112 175 181 183 185 187 173 164 170 135 126 141 168 180 164 137 177 159 165 184 181 192 215 213 217 226 207 205 202 194 193 184 189 190 191 186 189 178 187 187 166 131
227 228 206 190 116 198 192 123 189 183 176 146 152 180 133 124 128 172 167 195 179 176 143 194 187 227 209 214 230 234 221 226 207 216 215 213 211 208 205 152 194 188 191 187 179 177 180 182 185
224 221 224 224 222 217 182 183 131 172 181 144 136 129 166 169 179 179 163 183 180 230 243 143 222 229 236 228 224 221 224 231 214 198 193 194 194 195 188 183 147 182 184 181 184 173 172 197 198
226 220 224 220 227 219 220 214 183 190 143 144 187 145 225 157 146 156 173 228 239 181 196 198 236 222 212 186 208 209 223 205 188 184 183 191 184 182 185 190 184 183 184 188 186 208 206 207 207
225 218 220 225 216 211 210 227 285 260 209 148 199 162 170 190 227 230 213 220 216 233 239 232 222 221 216 196 198 202 193 189 190 195 190 187 180 181 186 182 187 192 195 205 206 197 191 199 196
236 234 255 261 252 248 280 238 230 165 181 222 136 230 242 221 221 217 231 234 245 241 220 215 204 206 208 202 193 191 189 197 197 192 187 176 183 189 186 186 194 203 210 200 195 177 198 200 199
224 240 238 239 229 226 225 227 225 241 220 161 211 209 229 229 236 234 244 242 214 215 202 211 201 217 200 200 188 183 189 191 192 185 178 183 192 182 128 192 192 204 199 199 198 197 193 194 208
237 241 240 238 238 236 213 134 142 237 234 233 232 222 218 227 239 231 220 199 215 195 209 194 208 199 200 187 187 186 184 188 183 184 190 187 189 189 192 192 203 207 209 139 193 194 196 158 208
209 216 224 152 181 228 234 236 228 229 235 224 220 195 227 214 236 211 207 204 203 195 202 205 204 191 193 188 183 186 191 188 182 183 191 190 190 195 206 199 188 195 109 194 188 145 156 167 214
224 219 225 234 237 228 222 230 226 229 224 219 210 212 217 221 219 215 200 201 195 199 198 204 184 191 186 188 190 190 188 185 181 191 182 185 187 195 194 192 189 139 176 198 212 225 226 230 220
238 244 235 234 230 230 228 229 235 221 210 219 213 224 228 211 208 202 198 198 199 198 187 193 192 184 183 187 184 187 188 193 189 184 186 195 195 196 171 200 110 204 209 220 218 223 221 214 237
241 246 243 240 237 237 236 242 242 244 227 212 205 215 216 190 203 193 192 193 193 188 189 189 186 191 189 180 186 174 187 184 176 196 201 192 195 198 197 201 203 218 217 222 228 234 235 240 255
244 246 249 244 238 237 248 253 276 267 278 247 204 201 201 204 212 210 200 195 183 176 180 195 191 182 186 180 185 184 189 188 187 190 193 184 200 193 195 204 212 224 228 233 230 235 243 255 261
247 246 210 214 231 211 215 218 210 211 217 225 226 206 198 198 188 192 190 185 181 199 192 180 180 180 182 184 122 183 169 196 195 189 198 202 195 202 211 219 219 234 233 239 247 262 276 282 290
207 210 212 211 209 209 205 202 201 202 204 200 196 188 190 202 201 190 182 197 194 190 183 183 185 180 177 96 190 109 132 199 204 196 195 198 212 223 229 234 243 249 261 272 279 292 288 338 336
204 203 200 198 197 202 202 198 197 192 193 193 195 191 181 189 190 201 195 195 196 189 186 178 184 182 186 153 165 187 180 191 193 190 209 219 232 235 244 250 261 271 278 294 336 344 342 339 334
195 196 193 192 189 189 191 207 212 212 205 187 182 191 184 187 195 191 182 190 177 172 178 184 186 178 184 184 185 185 191 188 203 214 229 234 230 245 255 275 262 284 277 353 354 353 353 352 353
198 197 195 197 201 193 188 190 191 190 189 194 192 191 199 193 205 187 183 180 183 186 187 183 170 182 182 183 192 191 200 212 217 231 230 245 253 269 250 267 289 345 328 324 335 353 441 436 427
Wind_Speed
41 30 30 27 57 65 26 53 54 47 21 39 60 41 39 40 45 52 49 74 61 49 51 52 78 75 69 72 80 60 66 98 82 79 94 103 107 101 90 113 118 16 17 80 24 23 22 30 30
49 35 66 32 55 25 64 41 32 23 58 29 68 62 45 33 49 48 53 69 57 55 51 72 74 74 75 60 78 72 97 73 72 90 101 104 101 113 109 123 85 85 35 18 14 14 23 14 27
47 53 57 33 73 65 52 42 50 41 62 41 59 67 46 55 46 39 66 63 47 65 73 69 65 54 64 80 89 90 71 82 96 102 102 109 107 112 116 36 74 24 23 37 37 14 33 13 10
51 84 70 29 56 68 55 50 55 63 36 62 30 50 50 42 34 53 52 44 64 74 53 53 59 61 77 90 97 88 73 103 106 94 105 113 109 119 25 20 19 22 15 16 13 8 7 20 14
43 43 27 85 42 72 75 54 58 52 36 31 48 72 62 52 57 68 72 47 77 69 53 86 82 71 92 97 77 78 108 111 98 106 108 118 52 27 50 31 49 35 26 31 20 17 14 9 8
45 46 87 43 104 37 52 61 59 72 39 58 58 71 74 68 60 44 75 78 67 65 61 96 91 89 74 97 89 90 103 116 125 105 125 113 34 42 47 32 38 40 48 32 38 39 30 21 16
48 43 41 35 46 83 89 42 40 57 57 71 68 66 76 47 41 54 70 57 83 62 86 78 92 78 87 82 109 103 117 89 114 120 54 46 39 38 32 51 58 32 30 27 35 27 23 35 33
97 44 41 66 85 81 56 51 49 67 58 57 67 56 41 42 56 84 81 57 65 79 87 80 69 97 97 99 117 102 108 120 126 123 38 42 54 50 58 52 44 48 41 36 31 36 30 35 28
44 54 100 58 95 51 77 49 106 67 59 56 64 41 59 61 75 81 60 80 83 88 67 79 93 82 103 90 105 108 125 122 79 44 73 51 55 51 46 49 48 45 50 50 47 54 43 45 41
97 85 76 50 45 50 104 104 103 51 57 78 97 97 92 61 56 57 80 96 81 67 89 89 92 111 102 92 119 121 121 77 96 67 58 56 53 50 49 51 55 50 51 49 51 50 47 51 48
38 62 102 35 47 54 63 39 89 95 96 70 70 98 81 51 54 78 80 62 72 82 94 94 108 111 122 122 108 119 62 55 82 51 55 57 55 53 51 53 56 52 47 50 52 52 53 52 52
51 47 41 89 83 50 92 57 104 44 76 101 78 66 88 82 93 83 75 67 90 92 95 92 109 112 97 117 109 89 65 61 70 59 59 54 52 47 46 46 47 48 49 48 52 56 54 43 49
62 82 97 97 100 93 74 37 80 90 97 97 102 83 75 81 68 64 75 93 112 96 78 112 97 101 124 126 127 75 64 57 49 56 57 57 55 54 54 52 50 50 52 53 57 57 58 57 41
78 85 95 97 38 105 111 47 111 98 86 66 65 91 65 59 64 93 90 115 114 116 86 115 106 60 82 73 52 47 54 47 53 50 49 50 49 45 43 52 49 52 54 55 57 57 59 61 62
73 76 78 80 85 92 89 94 59 87 93 71 64 59 71 77 104 111 96 124 117 68 44 75 58 48 46 48 51 51 52 45 42 48 51 51 53 51 52 56 53 59 61 63 65 62 60 64 65
67 63 65 68 74 79 84 95 80 105 66 69 109 70 64 73 72 76 97 69 47 66 87 78 36 33 43 77 57 58 46 48 53 54 57 53 58 59 59 59 61 64 66 67 67 68 65 65 65
63 63 65 68 68 74 76 78 32 52 56 70 114 86 90 102 70 62 76 66 71 49 36 31 36 35 31 50 65 54 58 59 58 52 55 58 61 66 66 65 67 69 69 70 71 69 68 69 69
49 52 52 50 58 58 31 56 59 60 55 64 61 40 41 61 61 65 50 45 39 35 38 39 52 47 43 48 56 59 62 56 56 59 60 63 65 66 68 70 73 75 73 73 73 68 75 77 77
41 41 40 44 48 52 53 49 56 40 57 63 61 64 53 47 44 42 36 34 42 43 55 46 54 39 49 47 57 64 61 61 61 63 64 67 70 69 60 73 75 78 78 78 78 78 77 80 85
31 31 35 38 40 42 45 55 56 41 45 44 45 46 45 42 39 41 34 58 38 60 44 60 48 52 49 56 59 63 67 66 67 69 68 70 72 74 76 77 81 82 82 63 84 86 86 70 90
32 34 34 46 44 40 37 34 39 42 33 38 40 50 39 45 38 45 49 47 46 55 49 48 50 56 55 59 64 68 70 72 72 74 77 78 80 81 85 83 81 87 54 88 88 65 73 77 97
34 31 32 27 27 31 38 33 30 36 37 36 43 46 38 40 43 40 49 47 53 50 53 51 59 57 64 66 67 70 75 78 77 83 79 83 84 91 91 90 87 74 87 95 98 102 103 105 102
27 22 26 27 29 29 33 32 26 28 43 38 51 36 30 39 44 48 53 53 53 56 58 57 58 63 68 72 75 78 81 84 85 86 90 94 96 97 65 100 68 102 104 106 104 107 106 104 112
20 20 22 24 25 27 35 34 32 29 34 39 50 47 37 41 42 50 53 55 58 60 60 61 66 66 67 69 74 78 86 89 86 96 97 98 101 103 104 106 106 111 112 114 116 116 114 114 120
12 14 17 20 21 25 27 32 33 27 28 32 46 48 46 46 47 43 47 51 57 64 67 63 68 74 76 76 82 84 86 88 91 95 98 97 102 104 109 112 114 118 118 119 115 119 122 131 130
4 6 22 22 15 28 26 22 29 28 22 20 26 35 40 47 51 46 49 56 61 57 59 68 73 77 80 83 61 90 83 96 97 100 104 106 109 110 115 117 117 127 120 124 129 135 135 132 132
18 17 16 19 23 25 23 28 32 35 35 29 32 37 43 44 46 45 55 55 59 62 67 70 74 80 81 51 92 54 66 103 104 110 112 113 115 119 121 125 129 132 136 138 133 138 128 118 116
18 20 24 26 31 33 31 28 31 38 42 45 42 44 51 50 54 53 54 58 60 66 69 75 80 84 89 76 83 99 94 108 112 114 116 120 125 125 131 132 136 133 132 139 120 115 114 113 113
25 26 30 34 35 38 46 43 34 34 36 47 54 49 55 56 57 58 66 64 68 72 74 78 82 84 94 97 101 101 107 109 114 119 126 126 122 133 135 141 123 139 132 113 110 109 108 108 107
27 28 32 35 36 36 43 49 49 47 52 49 48 54 53 55 54 59 64 68 73 77 80 86 82 94 97 101 105 107 110 112 119 125 120 128 135 142 120 131 146 120 121 118 113 110 68 62 60
Wind_Direction
267 274 276 261 272 268 290 271 279 281 305 296 288 299 297 299 300 279 303 273 292 307 310 301 278 299 308 307 287 310 308 282 292 307 300 294 288 297 298 300 303 328 319 301 304 306 292 287 279
268 268 262 277 276 282 255 278 278 279 281 306 270 292 298 293 296 302 292 291 301 299 308 291 294 300 293 311 303 310 306 307 306 298 294 294 300 304 299 304 306 304 304 320 338 345 306 329 290
269 268 267 278 262 263 272 276 283 288 255 301 286 271 299 297 290 289 290 300 316 299 287 302 308 308 309 301 298 295 307 307 303 300 306 304 299 303 303 308 307 317 322 308 306 336 299 329 328
263 253 258 284 272 254 261 280 276 274 298 263 281 276 294 302 307 302 301 312 299 289 308 308 308 309 301 298 293 298 308 294 307 305 299 304 302 305 298 302 300 302 312 300 291 284 300 297 304
266 267 277 258 270 259 258 268 277 286 289 289 291 280 278 295 298 293 292 309 293 300 308 287 295 299 291 294 308 303 304 306 305 301 303 306 302 300 302 301 304 300 300 297 297 312 287 294 309
265 265 256 271 257 286 276 270 273 264 281 282 286 282 277 285 296 308 291 286 295 304 304 303 296 297 307 296 296 303 297 305 307 303 307 310 295 300 300 300 299 299 302 299 301 299 296 286 286
264 263 269 282 276 262 261 280 282 278 279 265 278 282 279 300 305 305 293 304 284 307 290 305 288 306 301 306 302 299 305 306 304 306 300 298 295 297 292 303 303 297 295 295 294 293 294 293 291
244 272 274 262 259 261 271 276 276 269 277 280 278 286 301 304 298 292 287 305 304 296 285 301 306 296 291 295 302 298 304 303 304 305 291 294 300 300 300 297 294 295 293 294 302 294 299 294 295
274 267 250 264 257 276 266 278 267 274 278 278 277 294 292 289 285 281 299 290 289 289 304 302 292 301 298 302 301 302 302 302 298 294 305 299 297 295 293 293 293 292 294 292 291 294 293 290 296
245 252 257 271 274 275 263 265 268 280 276 279 279 282 284 290 295 300 292 293 297 303 293 289 292 297 296 297 300 299 300 302 302 301 298 298 294 294 293 294 299 295 292 292 288 286 292 287 288
264 261 249 281 274 271 272 280 271 271 274 278 280 279 284 300 300 287 288 301 300 294 292 293 295 296 297 296 299 300 296 294 300 295 294 296 297 298 296 295 301 293 291 290 285 285 285 283 284
262 270 272 258 264 272 268 278 268 285 278 274 277 286 282 284 286 287 292 298 288 289 291 291 291 293 296 294 297 296 301 298 302 298 295 294 297 296 293 293 292 294 294 295 294 281 288 293 282
249 250 253 257 257 262 268 293 273 273 272 274 275 278 279 283 288 295 292 288 289 289 299 293 294 294 293 293 295 298 294 294 291 297 298 298 296 295 295 295 293 291 292 292 291 289 292 285 290
242 245 252 256 278 258 260 281 267 269 271 279 280 277 287 296 296 285 287 284 288 289 297 289 292 291 293 296 295 289 288 288 294 295 296 296 295 300 299 300 295 293 292 293 289 288 289 290 290
243 248 251 254 257 257 261 263 278 268 269 278 284 291 281 284 282 285 288 286 285 284 278 301 288 292 299 298 294 292 296 299 298 300 302 299 300 299 296 295 300 296 294 294 293 291 289 292 292
250 253 253 253 255 258 259 260 266 265 279 281 272 285 275 286 289 287 284 285 279 292 289 290 287 286 288 294 294 297 296 296 296 297 297 297 296 297 297 296 296 294 294 292 290 296 295 295 294
251 256 256 255 255 257 261 264 257 266 271 279 269 279 281 279 279 281 282 284 283 284 282 277 278 286 278 284 287 295 295 298 299 299 296 296 300 300 299 296 296 294 293 297 296 294 294 296 295
248 249 250 252 253 255 246 261 264 277 278 273 290 275 276 278 278 280 278 278 281 282 283 282 286 287 286 288 291 293 296 298 297 295 296 299 297 294 294 297 295 297 296 297 298 297 297 296 295
247 247 251 254 252 255 259 264 267 265 271 282 273 277 277 274 279 277 277 281 279 285 285 285 288 284 287 286 287 291 293 293 293 297 298 298 297 299 296 300 302 299 298 298 298 297 298 296 294
258 265 261 265 261 263 268 280 284 268 270 274 275 275 275 273 273 277 271 281 284 287 291 294 291 292 291 291 291 291 293 294 297 297 297 298 300 300 301 303 300 298 297 297 302 301 299 294 295
251 256 261 273 269 264 266 264 272 271 270 274 277 280 278 275 273 267 274 278 285 290 292 292 290 293 292 290 292 294 295 298 301 304 304 305 305 303 300 303 305 304 301 300 301 300 298 297 295
251 251 255 256 267 265 264 264 268 275 272 262 266 272 278 281 277 272 282 285 289 289 290 290 291 295 295 295 297 299 300 302 306 305 308 310 309 307 307 307 306 304 303 300 300 302 300 298 295
258 257 258 260 262 265 263 274 254 259 269 275 267 263 258 267 278 284 289 292 291 292 295 297 298 295 298 302 303 303 305 305 306 308 310 306 306 306 306 306 297 304 303 303 301 301 296 295 295
273 276 275 274 276 279 278 273 276 259 256 265 283 286 279 287 276 286 291 291 292 297 298 297 294 296 298 301 302 307 307 309 307 306 304 308 308 306 305 304 305 306 304 303 302 300 297 295 296
280 279 280 281 283 281 286 293 296 303 294 273 270 286 297 294 287 288 285 289 293 298 298 299 300 302 304 307 307 306 305 304 306 307 305 309 302 307 308 307 306 305 304 303 300 299 300 298 297
347 333 274 280 294 283 297 308 301 289 285 279 269 272 282 283 294 295 294 292 293 292 294 298 302 304 306 306 309 307 307 304 305 308 307 307 309 307 307 307 305 305 303 302 300 298 297 297 296
269 274 277 279 280 281 282 287 290 299 297 287 281 284 286 284 288 292 289 292 291 294 300 304 303 305 304 311 306 311 309 309 308 309 310 308 306 307 305 305 305 304 302 301 300 300 298 294 293
262 267 272 274 281 287 280 276 283 287 293 294 295 295 295 294 296 294 293 292 296 301 303 307 305 307 305 305 308 312 315 311 310 310 306 307 307 307 307 306 304 302 301 301 300 297 295 293 291
274 275 277 279 284 290 295 297 293 291 286 291 298 296 298 298 299 301 306 305 307 308 306 302 302 309 310 310 310 311 308 310 306 307 307 307 308 308 306 304 304 306 304 300 299 298 298 297 297
279 278 284 291 293 286 290 296 301 301 297 295 291 289 294 294 290 296 300 301 302 303 306 310 316 309 308 308 306 306 305 307 307 307 309 311 309 307 305 310 304 302 300 300 299 300 301 300 297